map of LYKV home
LYKV - Airport
Location
City:  Kraljevo, Serbia
Name:Ladevci
Old (Alt.):Obrva
ICAO:LYKV

Details
Type:Airport (Aerodrome, Airfield)
Latitude:4349'06"N (43.818333)
Longitude:2035'14"E (20.587222)
Elevation:686 ft (209 m)
Variation:4.67E (WMM2015 magnetic declination)
0.11 annual change
Runways:1
Longest:7218 ft (2200 m), paved

Time
Time Zone:UTC+1 (DST+2)
Local Time:

Weather
METAR:LYKV 181800Z 20003KT 9999 FEW050 23/16 Q1011 NOSIG
TAF:LYKV 181700Z 1818/1918 28005KT 9999 BKN40 TX23/1913Z TN16/1903Z
BECMG 1900/1902 6000 -RA
TEMPO 1903/1912 5000 RA BKN013 BKN030

Related Locations
Nearby:
Farthest:CHT: 11590 mi / 18652 km
Waitangi [Tuuta], CIT, NZ

Find:

   beyond  
but within

Other Information
Maps:
NOTAMs:
Links:
Sources:

  
  • flag of Serbia
  

Sectional Chart

Flight Planning
at skyvector.com

Satellite Image

Google Maps Satellite view

 

Copyright © 2004-2018 Karl L. Swartz. All rights reserved.
The Great Circle Mapper name and logo are trademarks of the Great Circle Mapper.
All other trademarks mentioned herein belong to their respective owners.
Please see credits for attibutions and further copyright information.

  Follow gcmap on Facebook Follow gcmap on Twitter Follow gcmap on Google+ GCmap on LinkedIn

hCard Microformat

Geo Microformat